[[{"header":{"parameterUnit":"m.s-1","parameterCategory":1,"la1":30.2991,"la2":30.254,"lo1":-89.0895,"lo2":-89.0444,"dy":0.0017,"dx":0.0017,"nx":28,"ny":28,"refTime":"2025-02-02T09:00:00:Z","depth":0,"parameterNumber":2,"parameterNumberName":"U-component_of_WINDS"},"data":[0,0,0,0,0,0,0,0,0,0,0,0,0,0,0,0,0,0,0,0,0,0,0,0,0,0,0,0,0,0,0,0,0,0,0,0,0,0,0,0,0,0,0,0,0,0,0,0,0,0,0,0,0,0,0,0,0,0,-0.099,-0.099,0,-0.1034,-0.1035,-0.1035,-0.1047,-0.1047,-0.1047,-0.1046,-0.1094,-0.1096,-0.1097,0,0,0,0,0,0,0,0,0,0,0,0,0,-0.0917,-0.0919,-0.099,-0.099,-0.0991,-0.1034,-0.1035,-0.1036,-0.1047,-0.1047,-0.1047,-0.1046,-0.1094,-0.1095,-0.1097,0,0,0,0,0,0,0,0,0,0,0,0,0,-0.0954,-0.0919,-0.099,-0.1002,-0.1003,-0.1034,-0.1035,-0.1036,-0.1047,-0.1047,-0.1046,-0.1046,-0.1093,-0.1095,-0.1098,-0.112,0,0,-0.1105,-0.1106,0,0,0,0,0,0,0,0,-0.0952,-0.0957,-0.0999,-0.1001,-0.1003,-0.1035,-0.1027,-0.1064,-0.1047,-0.1031,-0.1046,-0.1046,-0.1075,-0.1079,-0.1088,-0.1122,-0.1124,-0.1105,-0.1106,-0.1107,-0.1108,0,0,0,0,0,0,0,-0.095,-0.0955,-0.1007,-0.1,-0.1002,-0.1006,-0.1011,-0.1034,-0.1055,-0.1032,-0.1033,-0.1038,-0.1076,-0.1086,-0.1089,-0.1125,-0.1105,-0.1107,-0.1108,-0.1109,-0.1182,-0.1183,0,0,0,0,0,0,-0.0945,-0.0953,-0.1006,-0.1009,-0.0976,-0.1008,-0.1013,-0.1025,-0.1054,-0.1058,-0.1038,-0.1038,-0.1082,-0.1087,-0.1091,-0.1121,-0.1107,-0.1109,-0.1111,-0.1182,-0.1183,-0.1183,0,0,0,0,0,0,-0.0943,-0.0949,-0.1004,-0.0981,-0.0988,-0.1009,-0.1023,-0.1026,-0.1036,-0.1059,-0.1063,-0.1045,-0.1082,-0.1088,-0.1113,-0.1122,-0.111,-0.1112,-0.1181,-0.1182,-0.1183,-0.1179,0,0,0,0,0,0,-0.0941,-0.0948,-0.0956,-0.0981,-0.099,-0.1025,-0.1023,-0.1027,-0.104,-0.104,-0.1066,-0.107,-0.1082,-0.111,-0.1115,-0.1125,-0.1114,-0.118,-0.1182,-0.1183,-0.1179,-0.118,-0.1181,0,0,0,0,0,-0.0938,-0.0954,-0.0957,-0.0963,-0.1,-0.1025,-0.103,-0.1043,-0.104,-0.1049,-0.1064,-0.1069,-0.112,-0.1112,-0.1119,-0.1129,-0.118,-0.1181,-0.1182,-0.1178,-0.118,-0.1181,0,0,0,0,0,0,-0.093,-0.0957,-0.0961,-0.0984,-0.1002,-0.1027,-0.1038,-0.1044,-0.1063,-0.1063,-0.1079,-0.1085,-0.1109,-0.1122,-0.1112,-0.1154,-0.115,-0.1153,-0.1145,-0.1146,-0.1148,-0.1144,-0.1116,0,0,0,0,0,-0.093,-0.0948,-0.0971,-0.099,-0.0999,-0.1017,-0.1028,-0.1037,-0.1056,-0.1064,-0.1081,-0.1101,-0.1121,-0.1134,-0.1155,-0.1181,-0.1187,-0.1191,-0.1193,-0.1193,-0.1196,-0.1212,-0.1215,-0.1187,-0.1187,-0.1187,0,0,-0.0932,-0.0949,-0.0959,-0.0989,-0.1003,-0.1022,-0.1023,-0.1043,-0.1057,-0.1067,-0.1093,-0.1106,-0.1129,-0.1155,-0.1167,-0.1166,-0.1205,-0.1195,-0.1196,-0.1197,-0.1214,-0.1216,-0.1219,-0.1188,-0.1188,-0.1188,0,0,-0.0945,-0.096,-0.0977,-0.0993,-0.1015,-0.1028,-0.1032,-0.1056,-0.1065,-0.1091,-0.1099,-0.1118,-0.1152,-0.1169,-0.1182,-0.1203,-0.1209,-0.1209,-0.1215,-0.1231,-0.1234,-0.1236,-0.1245,-0.1248,-0.1211,-0.1211,-0.1211,0,-0.0945,-0.0973,-0.0986,-0.1006,-0.1019,-0.1029,-0.1048,-0.1062,-0.1091,-0.11,-0.1098,-0.1144,-0.1159,-0.1191,-0.1196,-0.1206,-0.1212,-0.1206,-0.1232,-0.1234,-0.1236,-0.1245,-0.1248,-0.1211,-0.1211,-0.1211,-0.1211,0,-0.0972,-0.0992,-0.1004,-0.1031,-0.1045,-0.1065,-0.1082,-0.1095,-0.1103,-0.1116,-0.1143,-0.1163,-0.1188,-0.1196,-0.1204,-0.1229,-0.1228,-0.1229,-0.1226,-0.1239,-0.1247,-0.1251,-0.1211,-0.1211,-0.1211,-0.1211,0,0,-0.098,-0.1015,-0.102,-0.1033,-0.1059,-0.1075,-0.1096,-0.112,-0.1132,-0.1152,-0.117,-0.12,-0.1202,-0.1217,-0.1227,-0.1241,-0.1258,-0.124,-0.1241,-0.1244,-0.1289,-0.1289,-0.1292,-0.1262,-0.1263,-0.1263,-0.1288,0,-0.0998,-0.1034,-0.1047,-0.1077,-0.1097,-0.1107,-0.1126,-0.1145,-0.1158,-0.1177,-0.1192,-0.1213,-0.1213,-0.1222,-0.1237,-0.1253,-0.1268,-0.1251,-0.1281,-0.1282,-0.1276,-0.1297,-0.1296,-0.1318,-0.1291,-0.1292,-0.1292,0,-0.1022,-0.1042,-0.1075,-0.11,-0.1109,-0.1125,-0.1149,-0.1167,-0.1189,-0.1198,-0.1215,-0.1225,-0.1248,-0.1244,-0.1277,-0.1266,-0.1279,-0.1289,-0.129,-0.1294,-0.1288,-0.1302,-0.1325,-0.1329,-0.1297,-0.1297,-0.1297,0,-0.1027,-0.1062,-0.1086,-0.1097,-0.1127,-0.1138,-0.1152,-0.1174,-0.1188,-0.121,-0.122,-0.1244,-0.1257,-0.1277,-0.1293,-0.1288,-0.1326,-0.1322,-0.1335,-0.1334,-0.1343,-0.1342,-0.1369,-0.135,-0.1349,-0.1349,-0.1349,0,-0.1045,-0.1065,-0.1088,-0.1103,-0.1126,-0.1142,-0.1165,-0.1179,-0.1199,-0.1218,-0.1229,-0.1246,-0.1266,-0.1287,-0.13,-0.1327,-0.1333,-0.1342,-0.1345,-0.1341,-0.134,-0.135,-0.135,-0.135,-0.135,-0.135,-0.135,0,-0.1053,-0.107,-0.1097,-0.1124,-0.1132,-0.1147,-0.1171,-0.1187,-0.1201,-0.1225,-0.1232,-0.1254,-0.1279,-0.1297,-0.133,-0.1339,-0.1368,-0.1371,-0.136,-0.1362,-0.1375,-0.1374,-0.141,-0.1416,-0.1392,-0.1392,-0.1392,0,-0.1064,-0.108,-0.1108,-0.1122,-0.1135,-0.1156,-0.1171,-0.1188,-0.1203,-0.1231,-0.1244,-0.127,-0.1292,-0.1332,-0.1352,-0.1378,-0.1382,-0.1393,-0.1386,-0.1382,-0.1384,-0.1383,-0.1385,-0.1394,-0.1394,-0.1394,-0.1394,0,-0.1082,-0.109,-0.1111,-0.1135,-0.1153,-0.1173,-0.1193,-0.1203,-0.1224,-0.1241,-0.1267,-0.1284,-0.1318,-0.1344,-0.1372,-0.1387,-0.1395,-0.1396,-0.1401,-0.1398,-0.1391,-0.1396,-0.1364,-0.1396,-0.1395,-0.1395,-0.1395,-0.1395,-0.1093,-0.1108,-0.1131,-0.1154,-0.1171,-0.119,-0.1207,-0.1223,-0.1245,-0.1274,-0.1283,-0.131,-0.1334,-0.1372,-0.1388,-0.1411,-0.141,-0.1417,-0.1418,-0.142,-0.142,-0.1387,-0.1416,-0.1416,-0.1416,-0.1416,-0.1416,0,-0.1112,-0.1128,-0.1149,-0.1178,-0.1196,-0.1202,-0.1225,-0.1241,-0.1264,-0.1286,-0.1308,-0.1339,-0.1365,-0.1387,-0.1415,-0.1428,-0.1433,-0.1435,-0.1435,-0.1439,-0.1419,-0.1412,-0.1431,-0.1431,-0.1431,-0.1431,-0.1431,-0.1431,-0.1125,-0.1151,-0.1162,-0.1197,-0.1213,-0.1239,-0.1252,-0.1271,-0.1288,-0.1322,-0.1344,-0.1358,-0.1381,-0.1411,-0.1435,-0.1441,-0.1452,-0.1453,-0.146,-0.1441,-0.144,-0.1438,-0.1432,-0.1455,-0.1455,-0.1479,-0.1479,-0.1479]},{"header":{"parameterUnit":"m.s-1","parameterCategory":1,"la1":30.2991,"la2":30.254,"lo1":-89.0895,"lo2":-89.0444,"dy":0.0017,"dx":0.0017,"nx":28,"ny":28,"refTime":"2025-02-02T09:00:00:Z","depth":0,"parameterNumber":3,"parameterNumberName":"V-component_of_WINDS"},"data":[0,0,0,0,0,0,0,0,0,0,0,0,0,0,0,0,0,0,0,0,0,0,0,0,0,0,0,0,0,0,0,0,0,0,0,0,0,0,0,0,0,0,0,0,0,0,0,0,0,0,0,0,0,0,0,0,0,0,1.0076,1.0075,0,0.9988,0.9987,0.9986,0.994,0.994,0.994,0.994,0.9847,0.9844,0.9842,0,0,0,0,0,0,0,0,0,0,0,0,0,1.02,1.0198,1.0076,1.0075,1.0074,0.9989,0.9987,0.9986,0.994,0.994,0.994,0.994,0.9847,0.9845,0.9842,0,0,0,0,0,0,0,0,0,0,0,0,0,1.0132,1.0197,1.0076,1.004,1.0036,0.9989,0.9987,0.9986,0.994,0.994,0.994,0.994,0.9848,0.9845,0.9841,0.9821,0,0,0.983,0.9829,0,0,0,0,0,0,0,0,1.0136,1.0128,1.0047,1.0043,1.0038,0.9975,0.9997,0.9931,0.994,0.9976,0.994,0.9939,0.9889,0.9882,0.9866,0.9817,0.9813,0.983,0.9828,0.9826,0.9825,0,0,0,0,0,0,0,1.0141,1.0131,1.0041,1.0046,1.004,1.0028,1.0018,0.9984,0.9934,0.9973,0.997,0.996,0.9887,0.987,0.9863,0.9812,0.983,0.9827,0.9825,0.9823,0.9742,0.9742,0,0,0,0,0,0,1.0152,1.0136,1.0044,1.0039,1.0088,1.0026,1.0015,0.9995,0.9935,0.9925,0.996,0.9958,0.9876,0.9868,0.986,0.9832,0.9826,0.9823,0.9821,0.9742,0.9742,0.9742,0,0,0,0,0,0,1.0155,1.0144,1.0047,1.0086,1.0073,1.0024,1.0002,0.9994,0.9976,0.9925,0.9916,0.9952,0.9875,0.9865,0.9831,0.9829,0.9821,0.9818,0.9742,0.9742,0.9742,0.9778,0,0,0,0,0,0,1.0158,1.0145,1.0138,1.0086,1.0071,1.0022,1.0002,0.9992,0.9971,0.9967,0.9915,0.9906,0.9874,0.9837,0.9828,0.9824,0.9815,0.9742,0.9742,0.9742,0.9777,0.9779,0.9781,0,0,0,0,0,1.0163,1.0151,1.0138,1.0127,1.0061,1.0022,1.0013,0.9978,0.9971,0.9962,0.9929,0.9907,0.9831,0.9834,0.9823,0.9818,0.9742,0.9742,0.9742,0.9776,0.9779,0.9781,0,0,0,0,0,0,1.0203,1.0144,1.0128,1.01,1.0066,1.0014,1.0002,0.9982,0.9949,0.9947,0.9904,0.9892,0.9863,0.9837,0.9842,0.9795,0.9784,0.9782,0.9813,0.9816,0.9818,0.9825,0.9812,0,0,0,0,0,1.0208,1.0182,1.0132,1.0111,1.0095,1.0052,1.0033,1.0009,0.9972,0.9958,0.9922,0.9886,0.9854,0.9833,0.9801,0.9773,0.976,0.9763,0.9766,0.9768,0.9766,0.9749,0.975,0.9742,0.9742,0.9742,0,0,1.0219,1.0184,1.017,1.0118,1.0089,1.0062,1.004,1.0012,0.9992,0.9953,0.9919,0.9892,0.9849,0.9818,0.9803,0.9796,0.9766,0.9768,0.977,0.9767,0.9749,0.975,0.9751,0.9742,0.9742,0.9742,0,0,1.0225,1.0196,1.0176,1.0148,1.0105,1.0076,1.0071,1.0022,1.0003,0.9969,0.9939,0.9913,0.9858,0.9829,0.9807,0.9802,0.9781,0.9793,0.9804,0.9788,0.9789,0.9789,0.9787,0.9787,0.9791,0.9791,0.9791,0,1.0244,1.0203,1.0168,1.0142,1.012,1.0085,1.0063,1.0037,0.9985,0.9971,0.9964,0.9894,0.9863,0.9825,0.9824,0.9807,0.9799,0.9798,0.9792,0.9792,0.9791,0.9789,0.9789,0.9793,0.9793,0.9793,0.9793,0,1.0228,1.02,1.0189,1.0141,1.0118,1.0094,1.0054,1.0034,1.0013,0.9984,0.995,0.9911,0.987,0.9859,0.9837,0.9817,0.9814,0.98,0.9788,0.9795,0.9792,0.979,0.9796,0.9795,0.9794,0.9794,0,0,1.0256,1.019,1.0186,1.0164,1.0114,1.0091,1.0066,1.0027,1.0011,0.9976,0.9953,0.9908,0.9895,0.987,0.9844,0.983,0.9828,0.9817,0.9815,0.982,0.9804,0.9815,0.9815,0.9814,0.9814,0.9813,0.9808,0,1.0255,1.0209,1.0177,1.0143,1.0116,1.0083,1.006,1.0027,1.0,0.9973,0.9942,0.9911,0.9896,0.988,0.9865,0.9832,0.9824,0.9832,0.9791,0.979,0.9803,0.9813,0.9824,0.9821,0.9806,0.9806,0.9806,0,1.0248,1.0216,1.018,1.0133,1.012,1.0101,1.0063,1.0037,0.9998,0.998,0.9952,0.9926,0.9897,0.9887,0.9846,0.9852,0.9833,0.9814,0.9813,0.9808,0.9798,0.9808,0.9819,0.9818,0.9804,0.9804,0.9804,0,1.0272,1.0219,1.0191,1.0173,1.0118,1.0105,1.0081,1.0042,1.0021,0.9987,0.9972,0.9935,0.9915,0.9886,0.985,0.9847,0.9812,0.98,0.9795,0.9796,0.9789,0.979,0.9797,0.9778,0.9778,0.9778,0.9778,0,1.0274,1.0253,1.0201,1.0184,1.0159,1.0121,1.0098,1.0071,1.0037,1.0013,0.9981,0.9959,0.9913,0.9885,0.9857,0.9827,0.9817,0.9801,0.9793,0.9803,0.9806,0.979,0.979,0.9777,0.9778,0.9778,0.9778,0,1.0296,1.0261,1.0228,1.0179,1.0166,1.015,1.0107,1.0088,1.006,1.003,1.0021,0.9975,0.9941,0.9902,0.9855,0.9836,0.9807,0.9797,0.9821,0.9817,0.9814,0.9815,0.9812,0.9809,0.9792,0.9792,0.9792,0,1.03,1.0283,1.0233,1.0215,1.0192,1.0164,1.0142,1.0104,1.0083,1.0037,1.0024,0.9987,0.9956,0.9902,0.9864,0.9828,0.9816,0.9817,0.981,0.9821,0.9816,0.9817,0.9815,0.982,0.982,0.982,0.982,0,1.031,1.0293,1.0264,1.0228,1.0204,1.0174,1.0142,1.0129,1.0085,1.0062,1.0027,1.0003,0.9955,0.9919,0.9877,0.9851,0.9828,0.9823,0.982,0.983,0.9845,0.9837,0.9826,0.9823,0.9823,0.9823,0.9823,0.9823,1.0322,1.0306,1.0268,1.0237,1.0209,1.0181,1.0161,1.013,1.0101,1.006,1.0039,1.0004,0.9965,0.9907,0.9882,0.9853,0.9846,0.9842,0.984,0.984,0.9842,0.985,0.9846,0.9846,0.9845,0.9845,0.9845,0,1.033,1.0305,1.0276,1.0234,1.0209,1.019,1.0155,1.0134,1.0105,1.0071,1.0041,1.0001,0.9965,0.9925,0.9887,0.9872,0.9861,0.9863,0.9864,0.9858,0.9851,0.9858,0.9873,0.9873,0.9873,0.9873,0.9873,0.9873,1.0332,1.0303,1.0282,1.024,1.0213,1.018,1.0161,1.0134,1.0107,1.0064,1.0035,1.001,0.9973,0.9932,0.9899,0.9888,0.9875,0.9881,0.9867,0.9861,0.9859,0.9857,0.9862,0.9879,0.9879,0.9876,0.9876,0.9876]}]]